Stations météo

réclame
Mon MeteoGroup
Vlieland, Pays-Bas (6242): Température de l'air & dewpoint: 11.01.2018 08:00:00 - 17.01.2018 08:00:00 (CET)Vlieland, Pays-Bas (6242): Température de l'air 5cm: 11.01.2018 08:00:00 - 17.01.2018 08:00:00 (CET)Vlieland, Pays-Bas (6242): Vitesse du vent & gusts: 11.01.2018 08:00:00 - 17.01.2018 08:00:00 (CET)Vlieland, Pays-Bas (6242): Direction du vent: 11.01.2018 08:00:00 - 17.01.2018 08:00:00 (CET)Vlieland, Pays-Bas (6242): reduced air pressure: 11.01.2018 08:00:00 - 17.01.2018 08:00:00 (CET)Vlieland, Pays-Bas (6242): visibility: 11.01.2018 08:00:00 - 17.01.2018 08:00:00 (CET)
Date & Time tt [°C] td [°C] tt 5cm [°C] ff [km/h] ff [knt] fx [km/h] fx [knt] dd ppp [hPa] vv [km]
17.01.2018 08:00:00 4,0 -1,0 3,9 54 29 - - W 991,9 10
17.01.2018 07:00:00 3,6 -0,6 3,4 55 30 72 39 W 990,9 10
17.01.2018 06:00:00 4,1 -0,2 3,5 57 31 72 39 W 990,0 10
17.01.2018 05:00:00 3,5 -0,9 3,3 55 30 72 39 W 989,2 10
17.01.2018 04:00:00 4,5 -0,1 3,8 48 26 65 35 W 988,6 10
17.01.2018 03:00:00 4,3 -0,2 3,0 55 30 68 37 WNW 988,1 10
17.01.2018 02:00:00 3,1 0,7 2,7 54 29 76 41 W 987,8 10
17.01.2018 01:00:00 3,5 0,7 2,6 46 25 76 41 WNW 988,2 10
17.01.2018 00:00:00 4,8 0,3 4,3 57 31 68 37 W 987,9 10
16.01.2018 23:00:00 4,9 1,1 4,0 50 27 68 37 W 987,6 10
16.01.2018 22:00:00 5,2 0,2 4,6 50 27 68 37 W 988,1 10
16.01.2018 21:00:00 5,3 0,8 4,4 48 26 65 35 W 988,3 10
16.01.2018 20:00:00 4,9 1,5 4,2 44 24 72 39 W 988,7 10
16.01.2018 19:00:00 5,2 1,1 4,6 54 29 76 41 W 988,7 10
16.01.2018 18:00:00 5,3 0,6 4,8 52 28 68 37 W 989,3 10
16.01.2018 17:00:00 5,3 1,1 5,0 54 29 65 35 W 989,5 10
16.01.2018 16:00:00 5,3 0,7 4,9 52 28 61 33 W 989,5 10
16.01.2018 15:00:00 5,3 0,1 5,1 50 27 65 35 W 989,1 10
16.01.2018 14:00:00 5,6 1,1 5,4 54 29 76 41 W 988,9 12
16.01.2018 13:00:00 4,6 0,8 4,5 54 29 72 39 W 988,9 10
16.01.2018 12:00:00 5,6 1,1 5,6 55 30 68 37 W 988,6 10
16.01.2018 11:00:00 5,6 0,9 5,3 55 30 68 37 W 987,8 10
16.01.2018 10:00:00 5,5 1,9 5,2 50 27 65 35 WNW 987,1 10
16.01.2018 09:00:00 6,0 2,3 5,6 46 25 58 31 W 986,5 10
16.01.2018 08:00:00 6,0 2,4 5,6 44 24 68 37 W 986,3 10
16.01.2018 07:00:00 5,7 2,9 5,3 46 25 61 33 W 986,0 10
16.01.2018 06:00:00 5,7 3,3 5,2 52 28 65 35 W 985,7 10
16.01.2018 05:00:00 5,3 3,2 5,1 50 27 61 33 W 986,2 4,2
16.01.2018 04:00:00 5,4 2,7 5,3 50 27 65 35 W 986,6 10
16.01.2018 03:00:00 5,8 3,3 5,2 48 26 72 39 W 987,1 10
16.01.2018 02:00:00 6,4 3,7 6,0 46 25 65 35 W 987,8 10
16.01.2018 01:00:00 6,3 3,7 5,9 50 27 65 35 W 987,8 10
16.01.2018 00:00:00 6,3 3,8 5,9 46 25 61 33 W 987,5 10
15.01.2018 23:00:00 6,4 4,5 5,9 44 24 58 31 W 987,0 10
15.01.2018 22:00:00 6,7 4,8 6,1 46 25 58 31 W 986,9 10
15.01.2018 21:00:00 7,0 6,3 6,7 41 22 50 27 W 985,7 8
15.01.2018 20:00:00 7,2 7,0 6,8 46 25 54 29 SW 985,1 4,7
15.01.2018 19:00:00 5,3 4,9 5,3 39 21 54 29 S 985,6 4,7
15.01.2018 18:00:00 5,4 4,9 5,3 39 21 65 35 S 987,8 6
15.01.2018 17:00:00 5,8 5,0 5,6 54 29 76 41 S 989,0 4,0
15.01.2018 16:00:00 5,6 5,2 5,2 52 28 65 35 SSW 990,8 3,4
15.01.2018 15:00:00 4,7 4,3 4,7 46 25 65 35 S 992,8 3,5
15.01.2018 14:00:00 4,8 3,9 4,5 48 26 68 37 S 994,5 4,2
15.01.2018 13:00:00 4,6 3,8 4,4 50 27 61 33 S 996,7 5
15.01.2018 12:00:00 4,0 3,4 3,9 42 23 58 31 S 999,1 5
15.01.2018 11:00:00 3,6 2,8 3,5 42 23 61 33 S 1001,4 3,8
15.01.2018 10:00:00 3,7 3,0 3,7 41 22 61 33 S 1002,8 3,5
15.01.2018 09:00:00 3,5 2,9 3,5 34 18 47 25 S 1004,3 2,6
15.01.2018 08:00:00 3,6 2,4 3,5 35 19 43 23 S 1005,4 5
15.01.2018 07:00:00 3,5 2,2 3,4 35 19 43 23 S 1006,9 4,8
15.01.2018 06:00:00 3,3 2,3 3,4 34 18 47 25 S 1007,9 4,6
15.01.2018 05:00:00 3,6 2,5 3,1 35 19 47 25 S 1009,2 5
15.01.2018 04:00:00 2,9 2,0 2,8 28 15 40 21 S 1010,8 3,5
15.01.2018 03:00:00 2,5 1,5 2,4 29 16 40 21 S 1011,7 5
15.01.2018 02:00:00 2,2 0,9 2,2 29 16 40 21 S 1013,0 6
15.01.2018 01:00:00 2,3 0,8 2,2 28 15 36 19 S 1014,1 7
15.01.2018 00:00:00 2,1 0,5 1,6 22 12 32 18 S 1015,1 8
14.01.2018 23:00:00 2,3 0,6 1,6 22 12 36 19 S 1015,9 8
14.01.2018 22:00:00 2,3 0,6 1,6 26 14 36 19 S 1016,8 9
14.01.2018 21:00:00 1,8 -0,1 1,1 29 16 43 23 SSE 1017,6 10
14.01.2018 20:00:00 1,7 -0,4 1,1 34 18 43 23 SE 1018,0 10
14.01.2018 19:00:00 1,8 -0,5 1,2 34 18 40 21 SE 1018,8 10
14.01.2018 18:00:00 1,8 -0,3 1,4 31 17 40 21 SE 1019,1 10
14.01.2018 17:00:00 1,9 -0,4 1,7 28 15 32 18 ESE 1019,4 10
14.01.2018 16:00:00 1,8 -0,8 1,8 24 13 32 18 ESE 1020,2 10
14.01.2018 15:00:00 1,8 -0,8 1,7 26 14 32 18 ESE 1020,4 10
14.01.2018 14:00:00 1,6 -0,9 1,6 24 13 36 19 SE 1020,6 10
14.01.2018 13:00:00 1,4 -1,1 1,5 31 17 36 19 ESE 1021,2 10
14.01.2018 12:00:00 1,4 -1,0 1,4 34 18 40 21 ESE 1022,0 10
14.01.2018 11:00:00 1,2 -1,0 1,2 31 17 40 21 ESE 1022,4 10
14.01.2018 10:00:00 1,1 -1,0 1,1 34 18 43 23 ESE 1022,6 10
14.01.2018 09:00:00 1,2 -0,9 1,2 35 19 40 21 ESE 1022,7 10
14.01.2018 08:00:00 1,4 -0,6 1,3 34 18 40 21 E 1022,8 10
14.01.2018 07:00:00 1,4 -0,6 1,3 31 17 40 21 E 1022,8 10
14.01.2018 06:00:00 1,7 -0,4 1,6 31 17 43 23 E 1023,2 10
14.01.2018 05:00:00 1,9 0,1 1,8 34 18 40 21 E 1022,9 8
14.01.2018 04:00:00 2,2 0,9 2,1 29 16 36 19 E 1023,4 5
14.01.2018 03:00:00 2,5 1,2 2,3 31 17 40 21 E 1023,8 5
14.01.2018 02:00:00 2,6 1,3 2,4 31 17 40 21 E 1023,7 5
14.01.2018 01:00:00 2,8 1,4 2,6 28 15 40 21 E 1023,8 5
14.01.2018 00:00:00 3,3 1,9 3,1 29 16 40 21 E 1024,0 6
13.01.2018 23:00:00 3,6 2,5 3,4 28 15 32 18 E 1024,2 6
13.01.2018 22:00:00 4,0 2,8 3,7 28 15 32 18 ESE 1024,3 6
13.01.2018 21:00:00 3,9 3,2 3,7 29 16 36 19 ESE 1024,2 5
13.01.2018 20:00:00 4,2 3,5 4,0 26 14 32 18 ESE 1024,2 5
13.01.2018 19:00:00 4,4 4,0 4,3 24 13 29 16 ESE 1024,2 5
13.01.2018 18:00:00 4,4 4,0 4,3 24 13 29 16 ESE 1024,4 3,3
13.01.2018 17:00:00 4,3 3,8 4,2 24 13 32 18 ESE 1024,2 2,8
13.01.2018 16:00:00 4,5 4,2 4,5 18 10 25 14 E 1024,2 2,5
13.01.2018 15:00:00 4,5 4,4 4,6 22 12 29 16 ESE 1024,5 2,4
13.01.2018 14:00:00 4,1 4,0 4,3 22 12 32 18 SE 1024,9 1,2
13.01.2018 13:00:00 3,8 3,8 4,0 26 14 32 18 SE 1025,6 1,0
13.01.2018 12:00:00 3,6 3,5 3,7 26 14 29 16 SE 1025,8 1,1
13.01.2018 11:00:00 3,3 3,2 3,5 26 14 32 18 SE 1025,9 1,1
13.01.2018 10:00:00 3,2 2,9 3,2 24 13 32 18 SE 1025,6 2,5
13.01.2018 09:00:00 3,1 2,7 3,1 26 14 32 18 SE 1025,5 4,6
13.01.2018 08:00:00 3,2 2,7 3,0 26 14 32 18 ESE 1025,4 7
13.01.2018 07:00:00 3,0 2,7 2,8 22 12 25 14 ESE 1025,5 4,4
13.01.2018 06:00:00 3,1 2,6 2,9 21 11 22 12 ESE 1025,7 5
13.01.2018 05:00:00 3,3 2,8 3,2 21 11 25 14 SE 1025,9 5
13.01.2018 04:00:00 3,3 2,8 3,2 21 11 25 14 ESE 1026,3 4,7
13.01.2018 03:00:00 3,4 2,7 3,3 18 10 22 12 ESE 1026,9 5
13.01.2018 02:00:00 3,4 2,6 3,2 16 9 25 14 ESE 1026,9 6
13.01.2018 01:00:00 3,3 2,3 3,1 21 11 25 14 ESE 1027,1 6
13.01.2018 00:00:00 3,2 2,4 2,4 16 9 22 12 ESE 1027,2 7
12.01.2018 23:00:00 3,6 3,2 3,5 15 8 22 12 SE 1027,5 5
12.01.2018 22:00:00 3,7 3,4 3,6 13 7 18 10 SE 1027,4 3,5
12.01.2018 21:00:00 3,7 3,6 3,7 13 7 14 8 SE 1027,4 5
12.01.2018 20:00:00 3,7 3,5 3,7 11 6 14 8 SE 1027,1 5
12.01.2018 19:00:00 3,7 3,6 3,8 11 6 14 8 ESE 1027,1 1,0
12.01.2018 18:00:00 3,7 3,5 3,7 11 6 18 10 ESE 1027,1 2,6
12.01.2018 17:00:00 3,7 3,4 3,8 13 7 18 10 E 1026,9 1,2
12.01.2018 16:00:00 4,1 4,1 4,1 2 1 4 2 - 1027,0 10
12.01.2018 15:00:00 4,2 3,7 4,4 2 1 4 2 - 1026,8 10
12.01.2018 14:00:00 4,4 4,3 4,5 2 1 7 4 S 1026,7 10
12.01.2018 13:00:00 4,0 3,7 4,2 4 2 7 4 SSE 1027,0 10
12.01.2018 12:00:00 4,1 4,0 4,3 5 3 7 4 ESE 1027,4 8
12.01.2018 11:00:00 4,1 3,9 4,1 5 3 7 4 ESE 1027,5 6
12.01.2018 10:00:00 4,1 4,1 4,0 4 2 7 4 E 1027,3 8
12.01.2018 09:00:00 4,1 3,8 4,1 9 5 18 10 E 1026,8 10
12.01.2018 08:00:00 4,7 4,4 4,7 9 5 18 10 NE 1026,4 10
12.01.2018 07:00:00 5,3 5,1 5,2 13 7 22 12 NE 1025,9 2,6
12.01.2018 06:00:00 5,4 5,0 5,2 15 8 22 12 NNE 1025,8 4,5
12.01.2018 05:00:00 5,4 5,1 5,3 13 7 14 8 NE 1025,7 2,9
12.01.2018 04:00:00 5,5 5,3 5,4 15 8 18 10 NNE 1025,6 3,5
12.01.2018 03:00:00 5,5 5,4 5,4 13 7 18 10 NNE 1025,4 2,4
12.01.2018 02:00:00 5,7 5,6 5,6 15 8 22 12 NNE 1025,1 2,4
12.01.2018 01:00:00 5,6 5,4 5,3 13 7 18 10 NNE 1025,0 2,3
12.01.2018 00:00:00 5,2 5,2 5,0 15 8 18 10 NNE 1024,6 2,2
11.01.2018 23:00:00 5,7 5,7 5,5 15 8 22 12 NNE 1024,2 2,6
11.01.2018 22:00:00 5,8 5,7 5,5 13 7 18 10 N 1023,7 2,5
11.01.2018 21:00:00 5,5 5,4 5,1 9 5 18 10 N 1023,3 2,0
11.01.2018 20:00:00 5,8 5,7 5,5 16 9 18 10 NE 1022,8 2,4
11.01.2018 19:00:00 5,7 5,7 5,3 13 7 18 10 NNE 1022,1 2,1
11.01.2018 18:00:00 5,4 5,4 4,6 13 7 14 8 N 1021,4 1,6
11.01.2018 17:00:00 5,9 5,8 5,7 13 7 14 8 N 1020,9 1,2
11.01.2018 16:00:00 5,8 5,8 5,9 11 6 14 8 N 1020,4 1,1
11.01.2018 15:00:00 5,9 5,9 6,1 9 5 11 6 N 1019,6 1,2
11.01.2018 14:00:00 5,7 5,7 6,1 9 5 11 6 N 1019,0 1,6
11.01.2018 13:00:00 5,7 5,7 6,0 7 4 11 6 N 1018,6 0,3
11.01.2018 12:00:00 5,4 5,4 5,8 5 3 7 4 NNW 1018,1 0,1
11.01.2018 11:00:00 4,9 4,9 5,1 4 2 7 4 N 1017,7 0,2
11.01.2018 10:00:00 4,5 4,5 4,5 5 3 7 4 NE 1016,8 0,2
11.01.2018 09:00:00 4,1 4,1 4,2 4 2 7 4 E 1016,0 0,2
11.01.2018 08:00:00 4,1 4,1 4,0 5 3 14 8 SE 1015,0 0,2

tt = Température de l'air
td = dewpoint
tt 5cm = Température de l'air 5cm
ff = Vitesse du vent
fx = gusts
dd = Direction du vent
ppp = reduced air pressure
vv = visibility

stations d'obs. à proximité